Las Vegas, NV

7:47 AM PST on February 14, 2016 (GMT -0800)
Nellis AFB

Weather History for KLSV - November, 2011

Change the Weather History Date:

Monday, November 7, 2011

  Actual Average Record
Temperature  
Mean Temperature 48 °F -  
Max Temperature 58 °F 67 °F 84 °F (2007)
Min Temperature 38 °F 44 °F 32 °F (1996)
Degree Days  
Heating Degree Days 17    
Moisture  
Dew Point 28 °F    
Average Humidity 50    
Maximum Humidity 85    
Minimum Humidity 23    
Precipitation  
Precipitation 0.00 in - - ()
Sea Level Pressure  
Sea Level Pressure 30.10 in    
Wind  
Wind Speed 4 mph (NE)    
Max Wind Speed 16 mph    
Max Gust Speed -    
Visibility 10 miles    
Events      
Averages and records for this station are not official NWS values.
T = Trace of Precipitation, MM = Missing Value Source: NWS Daily Summary

Daily Weather History Graph

Daily Weather History Graph

Search for Another Location

Airport or City:

Trip Planner

Search our weather history database for the weather conditions in past years. The results will help you decide how hot, cold, wet, or windy it might be!

Date:

Astronomy

Nov. 07, 2011 Rise Set
Actual Time 6:08 AM PST 4:38 PM PST
Civil Twilight 5:41 AM PST 5:05 PM PST
Nautical Twilight 5:11 AM PST 5:35 PM PST
Astronomical Twilight 4:41 AM PST 6:06 PM PST
Moon 2:48 PM PST (11/7) 3:19 AM PST (11/7)
Length of Visible Light 11h 23m
Length of Day
10h 29m
Waxing Gibbous, 92% of the Moon is Illuminated
Nov 7
Waxing Gibbous
Nov 10
Full
Nov 18
Last Quarter
Nov 24
New
Dec 2
First Quarter

Hourly Weather History & Observations

Time (PST) Temp. Windchill Dew Point Humidity Pressure Visibility Wind Dir Wind Speed Gust Speed Precip Events Conditions
12:55 AM 45.0 °F - 38.7 °F 79% 30.03 in 10.0 mi Calm Calm - N/A   Overcast
1:36 AM 46.4 °F - 37.4 °F 71% 30.02 in 10.0 mi Calm Calm - N/A   Mostly Cloudy
1:45 AM 46.4 °F - 37.4 °F 71% 30.02 in 10.0 mi Calm Calm - N/A   Mostly Cloudy
1:55 AM 44.8 °F 43.3 °F 39.2 °F 81% 30.02 in 10.0 mi ENE 3.5 mph - 0.00 in   Scattered Clouds
2:55 AM 41.9 °F 38.2 °F 33.8 °F 73% 30.02 in 10.0 mi West 5.8 mph - N/A   Clear
3:55 AM 39.6 °F 37.4 °F 35.4 °F 85% 30.03 in 10.0 mi East 3.5 mph - N/A   Clear
4:55 AM 39.4 °F 37.2 °F 34.0 °F 81% 30.04 in 10.0 mi NE 3.5 mph - N/A   Clear
5:55 AM 38.3 °F 34.8 °F 33.3 °F 82% 30.07 in 10.0 mi NNW 4.6 mph - N/A   Clear
6:55 AM 40.5 °F 36.5 °F 32.9 °F 74% 30.09 in 10.0 mi SSW 5.8 mph - N/A   Clear
7:55 AM 43.9 °F 39.9 °F 32.4 °F 64% 30.11 in 10.0 mi SE 6.9 mph - N/A   Clear
8:55 AM 47.7 °F - 33.1 °F 57% 30.11 in 10.0 mi East 5.8 mph - N/A   Clear
9:55 AM 50.7 °F - 30.0 °F 45% 30.11 in 10.0 mi ESE 4.6 mph - N/A   Clear
10:55 AM 54.0 °F - 27.7 °F 36% 30.10 in 10.0 mi East 4.6 mph - N/A   Clear
11:55 AM 56.3 °F - 25.3 °F 30% 30.08 in 10.0 mi WNW 4.6 mph - N/A   Clear
12:55 PM 57.4 °F - 23.7 °F 27% 30.07 in 10.0 mi Calm Calm - N/A   Partly Cloudy
1:55 PM 57.9 °F - 22.5 °F 25% 30.08 in 10.0 mi NE 8.1 mph - N/A   Overcast
2:55 PM 57.9 °F - 20.5 °F 23% 30.09 in 10.0 mi NE 11.5 mph - N/A   Mostly Cloudy
3:55 PM 58.5 °F - 21.0 °F 24% 30.10 in 10.0 mi Calm Calm - N/A   Mostly Cloudy
4:55 PM 56.3 °F - 21.2 °F 26% 30.12 in 10.0 mi NNE 12.7 mph - N/A   Clear
5:55 PM 55.2 °F - 20.3 °F 26% 30.15 in 10.0 mi NNE 16.1 mph - N/A   Mostly Cloudy
6:55 PM 53.8 °F - 21.2 °F 28% 30.17 in 10.0 mi NNE 11.5 mph - N/A   Clear
7:55 PM 47.5 °F - 23.7 °F 39% 30.19 in 10.0 mi NNE 5.8 mph - N/A   Clear
8:55 PM 45.7 °F - 24.8 °F 44% 30.22 in 10.0 mi Calm Calm - N/A   Clear
9:55 PM 46.4 °F - 22.3 °F 39% 30.22 in 10.0 mi Calm Calm - N/A   Clear
10:55 PM 45.9 °F 42.9 °F 21.9 °F 39% 30.22 in 10.0 mi WNW 5.8 mph - N/A   Clear
11:55 PM 45.3 °F - 21.0 °F 38% 30.23 in 10.0 mi Calm Calm - N/A   Clear